RH
14 14 8 12 8 12 18 20 20 24 23 24 21 15 14 35 44 35 65 76 63 54 36 26 26 29 27 25 21 23 40 47 52 55 56 54 52 50 44 28 28 31 35 38 52 43 62 68 64
17 15 12 15 9 8 17 20 32 27 25 27 23 16 24 30 39 46 68 91 89 64 47 46 47 36 30 27 22 20 28 42 48 52 55 54 51 45 43 27 31 36 35 49 54 46 52 54 62
18 19 20 23 23 14 19 26 31 32 30 30 27 26 34 44 39 55 100 100 99 79 56 49 53 57 51 37 28 23 22 27 32 36 47 52 47 42 35 28 33 34 42 51 60 53 43 54 67
21 22 18 16 21 26 30 33 34 32 32 31 29 30 48 44 53 53 93 100 85 87 75 61 64 65 62 52 46 33 27 27 25 26 34 42 37 39 27 31 31 35 47 50 48 47 48 55 71
25 21 22 22 23 24 36 36 30 29 33 29 30 28 42 40 35 39 47 88 95 77 71 62 69 79 70 64 57 48 38 29 26 28 29 29 31 30 23 32 30 38 46 47 44 45 61 63 68
33 27 24 23 24 29 33 29 26 28 29 34 38 34 45 40 28 32 35 48 81 95 73 70 68 66 84 84 65 58 48 41 31 30 30 26 26 24 25 29 34 36 41 43 39 45 58 57 65
38 35 30 30 38 43 24 26 28 30 40 50 49 40 48 32 33 33 35 36 42 60 93 78 68 68 72 91 80 62 58 50 43 34 34 32 25 24 25 28 36 34 38 34 40 44 53 56 64
46 42 51 52 53 43 31 26 31 38 47 56 55 57 56 60 39 28 30 32 34 34 46 87 100 85 72 87 96 70 61 57 52 44 36 36 29 27 26 28 38 33 37 32 42 44 52 60 63
52 52 62 59 46 29 40 32 44 47 49 52 61 66 71 55 40 30 19 20 26 32 34 38 61 100 98 98 95 97 84 63 58 51 42 39 37 34 30 34 33 36 39 34 40 45 58 60 63
53 57 47 22 23 44 50 51 50 46 49 55 59 63 63 56 43 31 28 27 25 26 31 33 37 48 94 100 97 86 100 84 63 56 49 44 41 39 36 39 38 37 41 37 40 49 62 65 70
35 32 21 24 34 39 47 51 56 50 54 66 68 66 68 64 48 45 44 38 36 30 28 29 30 35 48 92 100 100 89 94 68 70 68 48 41 44 49 44 48 48 47 45 48 59 69 71 78
25 23 25 42 44 45 47 52 56 60 65 70 70 70 69 66 67 69 58 44 36 30 28 27 27 29 33 45 89 100 100 79 92 93 76 62 50 45 49 52 46 46 47 45 48 65 69 67 81
19 24 41 44 48 50 49 50 52 60 63 66 66 62 63 64 68 71 69 53 43 36 32 29 27 27 29 32 39 82 100 100 89 99 93 72 63 51 50 59 52 49 42 46 42 59 61 68 80
23 23 32 42 44 47 48 52 50 57 60 55 56 54 52 58 62 65 69 76 52 45 41 36 31 29 28 26 30 36 67 100 100 98 92 91 69 64 60 71 58 51 49 47 42 47 62 73 81
27 21 22 42 38 46 46 45 53 58 55 53 54 53 51 56 60 64 61 72 71 63 56 48 40 34 31 30 31 30 35 52 98 98 87 93 92 86 66 61 60 58 53 50 49 49 64 73 87
20 21 24 41 41 44 35 58 51 56 53 51 53 53 52 55 60 66 54 55 53 53 62 63 54 45 37 33 31 31 31 37 50 86 70 100 98 85 96 73 79 73 92 52 48 48 58 67 86
24 26 26 37 42 38 39 55 51 52 52 51 55 55 52 52 53 59 54 42 44 49 66 67 58 60 52 41 34 30 32 33 39 54 98 100 97 96 88 80 90 93 79 70 58 50 51 70 73
30 29 29 41 46 40 48 54 47 51 51 53 54 55 53 52 56 57 34 26 30 36 49 81 62 61 64 54 43 38 33 34 35 40 54 94 99 98 99 91 98 98 95 89 76 62 50 63 82
28 31 36 54 44 44 50 47 43 48 47 50 52 54 55 56 58 57 40 33 25 28 35 58 65 65 87 73 61 48 42 42 40 37 41 52 89 100 100 99 97 98 99 92 93 87 61 70 99
34 37 46 51 51 42 48 46 42 44 46 52 55 56 59 59 58 59 46 32 30 32 30 43 50 60 66 93 95 92 64 58 58 54 48 45 52 92 98 91 98 90 95 100 97 98 75 91 78
43 46 50 48 57 50 52 44 40 41 44 50 53 58 59 62 65 66 60 50 42 38 37 38 40 47 54 61 98 99 98 68 62 65 63 54 47 55 89 98 94 98 90 99 86 99 99 80 81
45 47 59 58 59 69 65 81 46 45 39 45 51 56 59 57 61 67 66 56 48 44 40 36 35 42 39 57 62 97 98 100 86 73 77 82 71 51 61 86 99 95 100 99 100 94 100 92 97
48 56 60 60 67 70 56 77 52 46 41 47 49 57 58 61 62 57 56 49 48 45 44 45 44 38 39 45 56 73 98 100 100 94 77 82 90 77 66 90 90 93 91 93 99 100 100 100 84
55 50 44 51 52 76 72 66 66 52 57 53 55 55 59 49 48 52 53 52 52 48 48 47 45 44 39 46 68 74 82 99 100 100 95 82 84 93 97 98 99 98 100 78 87 78 100 100 99
51 49 67 61 77 75 62 56 62 50 51 59 61 59 51 46 48 51 53 54 54 55 56 55 48 37 33 46 94 84 81 85 99 100 100 99 87 90 97 97 100 99 98 98 76 82 82 94 100
67 62 77 68 79 70 50 63 59 52 54 55 58 56 45 47 49 49 52 54 57 56 59 58 49 40 33 58 94 90 89 89 90 99 100 100 99 96 99 98 98 99 99 97 91 84 84 87 69
63 81 66 85 70 77 67 68 52 51 44 49 56 51 45 47 49 49 50 54 58 59 61 58 51 43 41 65 92 97 98 76 84 92 100 100 100 99 98 100 100 99 99 99 98 98 88 76 84
61 64 73 78 86 76 66 57 62 62 68 63 64 53 47 47 47 47 49 52 58 61 63 56 56 46 54 74 96 99 99 95 79 92 96 100 100 98 98 99 100 100 99 100 100 98 87 80 75
67 69 94 83 90 82 81 63 69 67 73 77 58 48 48 48 46 48 50 52 57 61 63 58 59 42 37 72 96 99 100 98 92 94 93 100 100 97 95 96 100 100 98 100 100 100 97 90 83
63 85 79 67 69 92 82 74 68 68 62 66 51 45 45 45 47 50 50 53 56 62 61 61 59 44 42 57 78 96 100 100 100 96 91 88 99 100 97 96 96 100 99 100 100 100 100 95 98
Wind_Speed
15 15 12 4 1 3 3 6 3 11 5 16 10 6 8 29 10 4 26 30 14 8 17 16 16 16 15 15 14 15 17 19 20 19 20 18 15 13 15 17 19 20 20 19 19 19 20 19 13
14 14 7 4 3 3 3 4 12 8 8 16 8 13 14 9 34 10 23 36 27 18 19 18 16 16 16 15 15 16 17 19 20 19 19 17 15 14 16 18 19 20 20 18 20 19 20 18 16
10 11 4 3 3 4 4 6 7 12 12 17 8 15 10 17 22 23 28 22 22 9 17 21 18 16 14 14 15 16 17 19 20 20 20 18 16 15 18 19 20 20 20 19 20 19 20 19 20
9 5 6 3 8 6 5 7 12 12 11 19 13 12 14 29 18 31 28 21 13 3 7 13 17 17 15 14 15 16 17 18 19 20 20 19 17 17 18 19 20 20 19 19 19 19 20 22 22
7 4 3 3 4 5 11 12 15 13 7 18 12 7 10 31 28 27 30 25 16 7 6 11 14 15 16 17 17 17 17 18 19 20 20 19 18 18 17 20 19 19 19 19 19 20 22 23 23
4 3 2 1 4 5 10 13 16 15 15 17 14 12 5 25 34 32 27 26 22 10 4 9 13 18 17 16 19 19 19 20 19 20 20 20 20 19 19 20 20 18 19 19 20 22 23 23 24
3 2 2 1 3 5 11 16 17 13 18 13 13 4 10 36 36 33 26 23 20 17 7 5 10 14 19 19 19 21 20 21 22 21 21 22 21 20 20 20 20 19 19 19 22 22 23 23 25
3 3 3 4 4 4 12 8 5 17 15 1 15 11 11 39 36 30 27 24 22 20 16 7 4 10 15 18 16 21 22 22 23 23 22 23 22 22 22 21 21 20 20 20 22 23 24 24 26
3 3 3 2 3 2 14 7 10 11 12 22 15 18 21 29 32 31 26 21 22 24 24 19 11 6 8 13 19 10 23 24 24 24 24 24 25 25 24 24 22 22 21 21 22 23 25 25 25
5 3 3 4 3 7 27 24 8 10 20 17 24 23 26 29 32 34 36 35 30 30 29 27 22 15 9 7 16 22 11 22 24 27 28 28 28 28 27 25 23 23 23 22 23 24 26 27 27
6 4 3 9 7 12 9 27 22 7 13 18 23 29 28 30 31 33 33 32 33 29 28 27 25 21 17 11 9 12 24 21 23 31 32 31 30 30 30 28 26 25 25 25 26 27 29 30 30
6 13 7 8 8 8 8 12 25 26 11 13 16 19 23 30 32 33 34 34 33 29 25 24 24 24 20 17 13 7 17 27 30 35 35 34 34 33 34 33 31 30 30 30 31 33 33 33 31
9 11 19 22 28 27 23 25 16 24 17 15 16 21 26 27 27 27 30 33 33 32 28 25 22 22 23 20 16 15 14 21 27 30 37 39 38 37 37 35 34 33 33 33 34 36 35 35 33
4 18 14 14 22 14 22 16 6 19 16 18 21 23 25 27 29 30 34 36 37 35 33 30 27 24 22 20 20 17 16 18 23 29 34 41 38 37 38 39 39 36 35 35 36 37 36 37 35
8 8 11 18 4 5 7 20 14 14 14 19 21 22 24 25 28 30 33 34 37 36 35 35 32 28 26 23 21 19 16 18 21 26 30 30 27 35 40 40 41 40 39 38 38 38 38 39 39
4 3 2 11 13 10 1 6 11 14 16 20 22 23 23 25 26 26 29 32 36 40 38 37 36 33 29 26 25 22 21 19 17 27 38 19 24 39 42 42 42 39 43 41 41 41 42 42 43
6 3 3 4 19 2 6 6 8 12 16 19 22 23 25 26 27 28 30 31 32 37 38 40 40 39 38 33 29 25 24 21 21 19 29 23 32 31 31 34 43 44 45 44 43 44 45 44 45
3 2 3 5 5 17 16 11 6 11 15 18 20 22 23 25 27 27 30 34 33 33 35 35 40 41 42 41 38 32 27 25 23 23 21 31 23 34 21 39 38 42 43 43 46 47 47 45 43
3 4 7 4 7 9 10 10 7 10 18 20 22 23 24 24 23 27 30 31 33 35 34 34 38 42 41 44 45 44 38 33 28 25 24 23 29 24 46 22 45 37 43 48 48 47 48 45 36
7 6 8 7 6 5 6 9 6 11 15 16 18 20 22 24 26 29 31 33 35 35 36 35 35 39 40 39 38 39 41 39 34 29 28 26 25 28 28 44 25 46 38 41 48 51 51 42 47
4 9 7 2 5 5 6 6 4 4 12 16 18 17 19 21 23 26 29 31 33 36 37 36 36 35 37 39 37 36 38 41 40 36 32 29 27 25 29 33 45 23 44 44 44 53 54 54 51
3 11 6 4 8 2 1 2 3 6 9 17 18 19 20 22 21 23 26 30 32 35 36 37 37 36 37 36 37 37 36 38 42 40 36 35 31 27 24 30 36 39 18 42 50 52 58 55 48
3 9 5 8 7 6 5 1 3 4 9 14 17 17 18 18 18 22 25 29 32 35 36 37 37 36 37 36 33 36 35 35 34 39 37 32 33 27 23 18 25 26 36 28 39 34 58 59 59
8 2 5 5 2 3 3 3 2 3 5 9 14 16 17 20 22 21 23 27 31 34 37 40 40 38 37 36 33 32 35 34 36 35 38 36 32 30 18 20 18 21 23 34 67 56 41 62 57
10 3 2 3 4 2 3 2 1 4 6 8 12 15 16 17 20 22 23 26 30 33 36 38 40 41 40 36 30 31 31 33 33 35 33 37 35 29 20 25 25 20 23 24 37 49 54 35 44
7 5 3 2 3 3 4 2 1 5 11 9 9 12 15 17 19 21 23 25 28 32 35 38 41 42 39 34 30 31 32 30 31 31 31 33 33 30 24 21 25 29 22 24 33 40 52 61 46
3 7 1 3 2 2 3 1 6 6 6 9 14 17 19 20 21 22 24 25 25 29 32 37 41 42 37 33 29 29 28 32 30 30 29 32 32 29 27 18 20 24 31 27 33 40 45 52 49
8 3 1 3 3 3 2 3 3 6 8 13 19 19 17 18 20 22 23 26 25 28 32 37 41 40 35 31 27 26 28 29 28 28 31 29 31 30 28 20 17 19 26 29 36 41 40 53 44
3 2 6 4 2 2 3 2 5 5 6 9 21 16 16 18 21 24 25 26 26 28 32 38 42 40 38 32 28 25 29 28 29 27 28 30 30 32 31 27 18 16 18 27 31 39 42 41 49
3 3 2 2 1 1 2 4 2 9 13 12 16 15 16 17 19 23 27 27 28 30 33 37 41 38 37 34 31 28 27 29 29 29 29 28 30 31 32 30 27 20 15 17 28 33 40 40 46
Wind_Direction
354 347 337 356 131 67 82 65 342 10 7 346 324 338 36 62 352 26 341 347 301 288 224 208 203 203 203 198 198 193 190 188 188 189 186 180 172 173 168 167 166 167 165 164 161 158 159 157 160
356 352 346 29 74 80 87 48 25 358 328 347 18 10 64 44 17 349 6 2 334 293 220 209 215 212 211 203 200 198 194 192 193 194 194 190 181 175 179 170 170 172 170 166 162 160 162 160 158
351 352 20 63 68 76 94 16 13 350 0 19 24 39 45 333 3 358 10 9 354 303 205 205 207 216 223 219 211 205 201 198 195 194 197 196 188 180 184 174 172 179 176 169 170 167 164 161 157
3 3 46 65 80 52 66 23 12 11 357 19 2 79 99 28 8 359 14 18 4 0 227 214 211 214 217 222 227 220 210 205 201 198 197 198 194 187 183 179 176 181 182 177 177 172 166 163 160
21 30 44 79 79 101 43 34 29 23 29 13 11 353 109 14 14 13 19 18 18 11 267 235 220 225 221 218 220 227 223 214 210 206 201 199 198 192 183 184 184 187 189 186 182 176 167 163 164
44 52 58 49 95 57 25 17 23 32 12 6 13 336 90 357 10 14 14 20 19 356 312 268 252 231 224 240 225 224 226 229 220 215 210 205 201 194 190 187 189 194 194 193 184 179 172 168 168
84 80 145 344 100 73 9 350 26 61 31 10 349 356 326 350 5 9 10 12 20 18 330 267 256 252 238 230 240 231 226 231 230 223 218 213 206 198 194 192 194 196 195 194 187 183 179 173 170
77 85 85 29 25 86 355 354 48 45 40 156 25 13 340 341 353 2 7 10 9 16 14 13 279 247 246 236 239 240 235 230 231 232 226 221 213 204 198 195 199 197 199 194 191 186 182 177 173
61 79 81 53 25 59 4 26 31 51 71 54 45 23 342 348 354 356 354 359 1 7 8 8 4 300 254 239 240 244 249 236 233 230 229 223 217 208 204 202 200 200 200 197 194 188 183 179 176
52 76 81 63 5 99 60 50 10 44 40 7 3 6 3 3 5 4 2 1 1 360 360 0 358 352 302 272 236 241 258 248 242 233 228 223 220 214 209 207 205 202 201 198 195 191 185 180 178
34 61 316 31 12 146 101 57 46 39 38 6 351 352 2 8 11 10 7 3 1 359 354 353 351 352 344 294 259 239 235 232 236 244 233 224 222 217 214 208 207 203 202 198 195 192 189 188 183
105 54 64 23 64 82 75 88 61 51 37 5 3 3 8 13 14 12 8 2 357 356 353 347 344 341 343 341 299 252 218 221 231 248 236 227 224 219 217 212 210 207 204 200 198 195 196 194 193
84 95 82 90 84 92 87 68 69 39 25 23 24 23 21 18 18 17 14 10 3 357 353 349 341 334 332 334 330 297 238 227 235 240 241 231 224 223 220 219 212 211 208 205 204 201 201 197 197
78 108 117 86 83 80 79 53 61 18 22 31 32 27 22 19 14 14 17 15 13 6 0 355 351 341 326 317 317 318 287 251 232 238 247 228 225 226 223 226 218 215 213 210 209 207 203 201 200
113 82 100 30 5 144 283 38 33 17 28 33 31 25 21 19 18 17 15 15 14 13 11 5 358 353 343 327 314 305 293 287 263 242 256 250 233 242 234 231 229 221 216 214 213 211 207 205 204
68 65 64 18 10 21 121 59 29 23 28 30 26 23 21 21 18 14 14 13 14 17 17 10 9 3 357 348 333 314 297 288 281 255 244 234 225 247 235 235 234 236 225 215 215 213 211 208 208
29 85 45 89 16 75 49 107 35 25 30 29 24 20 18 18 18 17 16 13 10 12 15 12 14 11 7 1 351 334 318 294 281 269 250 231 231 250 236 241 237 231 229 225 218 216 215 211 209
37 61 67 63 52 76 86 98 64 31 31 29 24 22 19 18 16 14 17 18 14 10 12 12 14 17 12 8 3 353 337 324 295 276 271 252 228 232 239 243 239 237 235 230 227 220 218 215 212
87 83 78 119 141 76 89 99 73 39 34 26 21 18 15 15 13 18 18 19 18 16 11 13 12 16 15 12 8 3 351 337 321 301 280 268 255 234 229 244 234 237 233 235 230 225 221 216 210
66 81 57 74 130 90 128 98 73 40 31 25 19 17 11 7 12 15 17 18 20 18 17 14 12 12 16 14 10 1 358 351 337 321 301 284 272 255 241 231 236 226 229 237 234 228 222 218 212
49 51 351 309 125 96 150 109 81 26 23 19 19 16 14 10 6 9 12 14 16 16 18 17 14 9 9 11 12 2 0 359 351 339 323 306 280 264 256 241 234 243 227 230 241 234 223 218 218
61 0 327 199 179 105 317 121 60 6 13 19 12 9 7 5 6 8 9 12 14 13 13 14 13 11 7 7 10 11 358 356 356 347 333 320 302 276 261 258 242 234 215 224 221 240 226 223 215
332 333 20 135 109 132 34 90 37 349 2 6 4 1 1 2 4 7 9 12 14 12 11 8 7 6 5 5 3 5 4 355 356 354 342 329 317 297 275 265 257 267 244 228 205 217 228 222 221
325 95 68 79 83 72 340 351 20 7 331 338 349 356 356 4 6 5 6 9 11 9 7 7 3 2 360 1 1 359 2 1 358 358 354 342 326 318 289 252 254 240 259 241 240 259 236 225 224
34 57 26 45 25 33 324 271 278 264 287 314 328 341 352 359 3 4 4 5 6 6 5 4 1 358 355 356 354 358 357 -0 359 359 358 354 338 320 308 261 256 246 238 237 230 237 253 251 221
45 54 82 88 352 336 325 346 44 267 296 307 321 336 350 352 354 358 358 358 360 0 1 0 358 355 352 351 349 354 356 356 359 0 0 2 352 329 311 296 269 247 239 230 233 233 235 240 265
42 53 60 90 59 258 325 261 273 253 326 329 339 344 351 354 351 347 351 351 351 352 356 356 356 355 352 351 348 351 350 356 357 357 2 4 0 347 319 306 301 256 239 231 231 238 237 230 234
72 98 123 46 22 340 302 270 288 326 315 321 326 335 343 347 350 348 348 350 346 347 352 354 356 355 353 349 350 353 351 351 357 358 355 5 6 357 346 316 316 283 250 235 224 234 232 230 231
37 63 66 104 6 336 312 247 218 251 278 297 309 324 332 342 348 349 347 347 342 345 351 354 355 356 357 357 352 356 353 352 358 359 358 358 11 4 358 346 334 310 277 246 229 229 237 235 223
106 118 98 95 176 67 294 278 223 251 284 296 308 321 331 334 332 338 346 344 344 346 351 353 355 357 359 360 357 358 351 353 357 359 0 358 3 15 5 357 355 352 304 264 233 224 229 237 227